THOR ABLESTAR R/B, 703

Orbit data source: Space-Track

THOR ABLESTAR R/B, 703 is space debris in LEO originally from a launch on Thu, 05 Dec 1963 UTC launched from the Air Force Western Test Range (AFWTR). Debris objects in space refer to the collection of defunct objects orbiting the Earth. Examples of debris include non-operational satellites, rocket bodies, and fragments generated from explosions, collisions, or faulty payload assembly.

Loading next visibility...
Identifier
703, 1963-049A
Orbit
LEO
Country
Flag of USUS
Related business
Manufacturer
Aerojet
Mission
Spacecraft
Bus & Motor
ABLESTAR, Unknown motor
Mass
~600 kg wet, 600 kg dry
Launch date (UTC)
1963-12-05 (62 years ago)
Launch vehicle
Unknown
Launch site
Air Force Western Test Range (AFWTR)
Object type
Payload
Rocket body
Debris
Shape & HBR
Unknown
Radar Cross Section
Large (>1 m²)

Expand to show TLE details & history
Last TLE update: 17 hours ago

TLE from 17 hours ago
0 THOR ABLESTAR R/B
1 00703U 63049A   26140.77379215  .00000048  00000-0  61167-4 0  9993
2 00703  89.9272  70.4129 0015972 357.1104  30.7845 13.49999196 75567
Epoch: 2026-05-20T18:34Z
TLE epoch observation values (Epoch: 2026-05-20T18:34:15.641Z)
Latitude
28.02814°
Longitude
-86.54225°
Altitude
1,065.544 km
Speed
7.327 km/s
True Right ascension
04h 41m 48s
True Declination
27° 53' 30"
Sunlit
Object was in daylight at epoch
Visualization orbit readout
Latitude
Unknown
Longitude
Unknown
Altitude
Unknown
Speed
Unknown
Apparent Right ascension
Unknown
Apparent Declination
Unknown
Sunlit
N/A
Visualization observer readout
Local Sidereal Time
20:22:59
Azimuth
Unknown
Elevation
Unknown
Doppler factor
Unknown
Orbital elements
Apogee altitude
1,081.206 km
Perigee altitude
1,057.416 km
Semi-major axis
7,447.448 km
Eccentricity
0.0016
Inclination
89.9272°
RAAN
70.4129°
Arg. of periapsis
357.1104°
True anomaly
30.87834°
Mean anomaly
30.7845°
Eccentric anomaly
30.8314°
Mean motion
3.37701 °/min
Orbital period
106.6 mins
BSTAR
0.000061167
Loading maneuver chart data...
Computing Atmospheric mass density...
Loading historical data...
Loading historical data...
Loading historical data...
Loading historical data...
Loading historical data...
Loading historical data...
Loading historical data...

Documentation

Showing up to 5 results
|